Tracking 28764 objects as of 12-Apr-2024
HD Live streaming from Space Station
objects crossing your sky now

METEOR 2-17 DEB

Track METEOR 2-17 DEB now!
10-day predictions


NORAD ID: 28993
Int'l Code: 1988-005H
Perigee: 903.2 km
Apogee: 930.9 km
Inclination: 82.5 °
Period: 103.2 minutes
Semi major axis: 7288 km
RCS: 0.0011 m2 (small)
Launch date: January 30, 1988
Source: Commonwealth of Independent States (former USSR) (CIS)
Launch site: PLESETSK MISSILE AND SPACE COMPLEX (PKMTR)

Note: This is SATELLITE DEBRIS
Your satellite tracking list
Your tracking list is empty




NASA's NSSDC Master Catalog

Two Line Element Set (TLE):
1 28993U 88005H   24101.51745172  .00002403  00000-0  17618-2 0  9996
2 28993  82.5324 197.6198 0019001  91.4734 268.8610 13.95352527478896
Source of the keplerian elements: AFSPC